Time,TemperatureF,DewpointF,PressureIn,WindDirection,WindDirectionDegrees,WindSpeedMPH,WindSpeedGustMPH,Humidity,HourlyPrecipIn,Conditions,Clouds,dailyrainin,SolarRadiationWatts/m^2,SoftwareType,DateUTC
2013-03-30 00:00:00,34.8,25.3,30.22,West,265,3.5,3.5,68,0.00,CLR,,0.00,0.0,WeatherDisplay:10.37,2013-03-30 04:00:00,
2013-03-30 00:05:00,34.9,25.0,30.22,West,262,4.6,4.6,67,0.00,CLR,,0.00,0.0,WeatherDisplay:10.37,2013-03-30 04:05:00,
2013-03-30 00:10:00,35.0,25.1,30.22,West,269,3.5,3.5,67,0.00,CLR,,0.00,0.0,WeatherDisplay:10.37,2013-03-30 04:10:00,
2013-03-30 00:15:00,34.9,25.0,30.22,West,271,2.3,2.3,67,0.00,CLR,,0.00,0.0,WeatherDisplay:10.37,2013-03-30 04:15:00,
2013-03-30 00:20:00,34.7,24.9,30.22,West,271,2.3,2.3,67,0.00,CLR,,0.00,0.0,WeatherDisplay:10.37,2013-03-30 04:20:00,
2013-03-30 00:25:00,34.4,24.9,30.22,West,265,3.5,3.5,68,0.00,CLR,,0.00,0.0,WeatherDisplay:10.37,2013-03-30 04:25:00,
2013-03-30 00:30:00,34.1,25.0,30.22,West,265,3.5,3.5,69,0.00,CLR,,0.00,0.0,WeatherDisplay:10.37,2013-03-30 04:30:00,
2013-03-30 00:35:00,33.8,25.0,30.21,West,266,3.5,3.5,70,0.00,CLR,,0.00,0.0,WeatherDisplay:10.37,2013-03-30 04:35:00,
2013-03-30 00:40:00,33.5,25.1,30.21,West,273,3.5,3.5,71,0.00,CLR,,0.00,0.0,WeatherDisplay:10.37,2013-03-30 04:40:00,
2013-03-30 00:45:00,33.2,25.1,30.21,West,261,3.5,3.5,72,0.00,CLR,,0.00,0.0,WeatherDisplay:10.37,2013-03-30 04:45:00,
2013-03-30 00:50:00,32.9,25.2,30.22,West,263,3.5,3.5,73,0.00,CLR,,0.00,0.0,WeatherDisplay:10.37,2013-03-30 04:50:00,
2013-03-30 00:55:00,32.6,24.9,30.21,West,273,3.5,3.5,73,0.00,CLR,,0.00,0.0,WeatherDisplay:10.37,2013-03-30 04:55:00,
2013-03-30 01:00:00,32.4,24.7,30.21,West,261,4.6,4.6,73,0.00,CLR,,0.00,0.0,WeatherDisplay:10.37,2013-03-30 05:00:00,
2013-03-30 01:05:00,32.2,24.8,30.21,West,263,3.5,3.5,74,0.00,CLR,,0.00,0.0,WeatherDisplay:10.37,2013-03-30 05:05:00,
2013-03-30 01:10:00,32.2,24.8,30.21,West,263,3.5,3.5,74,0.00,CLR,,0.00,0.0,WeatherDisplay:10.37,2013-03-30 05:10:00,
2013-03-30 01:15:00,32.3,24.6,30.21,West,277,4.0,4.0,73,0.00,CLR,,0.00,0.0,WeatherDisplay:10.37,2013-03-30 05:15:00,
2013-03-30 01:20:00,32.2,24.5,30.21,West,277,2.3,2.3,73,0.00,CLR,,0.00,0.0,WeatherDisplay:10.37,2013-03-30 05:20:00,
2013-03-30 01:25:00,32.0,24.3,30.21,West,277,2.3,2.3,73,0.00,CLR,,0.00,0.0,WeatherDisplay:10.37,2013-03-30 05:25:00,
2013-03-30 01:30:00,31.7,24.4,30.21,West,277,1.1,1.1,74,0.00,CLR,,0.00,0.0,WeatherDisplay:10.37,2013-03-30 05:30:00,
2013-03-30 01:35:00,31.4,24.4,30.21,West,277,2.3,2.3,75,0.00,CLR,,0.00,0.0,WeatherDisplay:10.37,2013-03-30 05:35:00,
2013-03-30 01:40:00,31.3,24.6,30.22,West,277,3.5,3.5,76,0.00,CLR,,0.00,0.0,WeatherDisplay:10.37,2013-03-30 05:40:00,
2013-03-30 01:45:00,31.2,24.2,30.22,West,277,2.3,2.3,75,0.00,CLR,,0.00,0.0,WeatherDisplay:10.37,2013-03-30 05:45:00,
2013-03-30 01:50:00,31.1,24.1,30.22,West,277,2.3,2.3,75,0.00,CLR,,0.00,0.0,WeatherDisplay:10.37,2013-03-30 05:50:00,
2013-03-30 01:55:00,31.1,24.1,30.21,West,277,3.5,3.5,75,0.00,CLR,,0.00,0.0,WeatherDisplay:10.37,2013-03-30 05:55:00,
2013-03-30 02:00:00,31.0,24.0,30.21,West,277,1.1,0.0,75,0.00,CLR,,0.00,0.0,WeatherDisplay:10.37,2013-03-30 06:00:00,
2013-03-30 02:05:00,30.6,23.9,30.22,West,277,1.1,1.1,76,0.00,CLR,,0.00,0.0,WeatherDisplay:10.37,2013-03-30 06:05:00,
2013-03-30 02:10:00,30.3,24.0,30.21,West,277,2.3,2.3,77,0.00,CLR,,0.00,0.0,WeatherDisplay:10.37,2013-03-30 06:10:00,
2013-03-30 02:15:00,29.9,24.2,30.21,West,277,0.0,0.0,79,0.00,CLR,,0.00,0.0,WeatherDisplay:10.37,2013-03-30 06:15:00,
2013-03-30 02:20:00,29.6,24.2,30.21,West,277,2.3,2.3,80,0.00,CLR,,0.00,0.0,WeatherDisplay:10.37,2013-03-30 06:20:00,
2013-03-30 02:25:00,29.5,24.1,30.21,West,277,2.3,2.3,80,0.00,CLR,,0.00,0.0,WeatherDisplay:10.37,2013-03-30 06:25:00,
2013-03-30 02:30:00,29.5,24.1,30.21,West,277,1.1,1.1,80,0.00,CLR,,0.00,0.0,WeatherDisplay:10.37,2013-03-30 06:30:00,
2013-03-30 02:35:00,29.3,23.9,30.21,West,277,0.0,0.0,80,0.00,CLR,,0.00,0.0,WeatherDisplay:10.37,2013-03-30 06:35:00,
2013-03-30 02:40:00,29.0,23.9,30.21,West,277,0.0,0.0,81,0.00,CLR,,0.00,0.0,WeatherDisplay:10.37,2013-03-30 06:40:00,
2013-03-30 02:45:00,28.7,23.9,30.21,West,277,2.0,2.0,82,0.00,CLR,,0.00,0.0,WeatherDisplay:10.37,2013-03-30 06:45:00,
2013-03-30 02:50:00,28.8,24.0,30.21,West,277,1.1,0.0,82,0.00,CLR,,0.00,0.0,WeatherDisplay:10.37,2013-03-30 06:50:00,
2013-03-30 02:55:00,29.0,24.2,30.21,West,277,2.0,2.0,82,0.00,CLR,,0.00,0.0,WeatherDisplay:10.37,2013-03-30 06:55:00,
2013-03-30 03:00:00,29.1,24.3,30.21,West,277,3.5,3.5,82,0.00,CLR,,0.00,0.0,WeatherDisplay:10.37,2013-03-30 07:00:00,
2013-03-30 03:05:00,29.0,24.2,30.21,West,273,2.3,2.3,82,0.00,CLR,,0.00,0.0,WeatherDisplay:10.37,2013-03-30 07:05:00,
2013-03-30 03:10:00,28.8,24.0,30.21,West,271,2.0,2.0,82,0.00,CLR,,0.00,0.0,WeatherDisplay:10.37,2013-03-30 07:10:00,
2013-03-30 03:15:00,28.7,24.2,30.21,West,271,2.3,2.3,83,0.00,CLR,,0.00,0.0,WeatherDisplay:10.37,2013-03-30 07:15:00,
2013-03-30 03:20:00,28.7,24.2,30.21,West,269,3.5,3.5,83,0.00,CLR,,0.00,0.0,WeatherDisplay:10.37,2013-03-30 07:20:00,
2013-03-30 03:25:00,28.6,24.1,30.21,West,267,2.3,2.3,83,0.00,CLR,,0.00,0.0,WeatherDisplay:10.37,2013-03-30 07:25:00,
2013-03-30 03:30:00,28.5,24.0,30.21,West,265,3.5,3.5,83,0.00,CLR,,0.00,0.0,WeatherDisplay:10.37,2013-03-30 07:30:00,
2013-03-30 03:35:00,28.4,24.2,30.21,West,262,2.3,2.3,84,0.00,CLR,,0.00,0.0,WeatherDisplay:10.37,2013-03-30 07:35:00,
2013-03-30 03:40:00,28.3,24.1,30.21,West,262,2.3,2.3,84,0.00,CLR,,0.00,0.0,WeatherDisplay:10.37,2013-03-30 07:40:00,
2013-03-30 03:45:00,28.2,24.0,30.21,West,262,2.3,2.3,84,0.00,CLR,,0.00,0.0,WeatherDisplay:10.37,2013-03-30 07:45:00,
2013-03-30 03:50:00,28.1,23.9,30.21,West,262,2.3,2.3,84,0.00,CLR,,0.00,0.0,WeatherDisplay:10.37,2013-03-30 07:50:00,
2013-03-30 03:55:00,28.0,23.8,30.21,West,262,2.0,2.0,84,0.00,CLR,,0.00,0.0,WeatherDisplay:10.37,2013-03-30 07:55:00,
2013-03-30 04:00:00,27.7,23.5,30.21,West,262,2.3,2.3,84,0.00,CLR,,0.00,0.0,WeatherDisplay:10.37,2013-03-30 08:00:00,
2013-03-30 04:05:00,27.4,23.2,30.21,West,262,0.0,0.0,84,0.00,CLR,,0.00,0.0,WeatherDisplay:10.37,2013-03-30 08:05:00,
2013-03-30 04:10:00,27.1,23.2,30.21,West,262,0.0,0.0,85,0.00,CLR,,0.00,0.0,WeatherDisplay:10.37,2013-03-30 08:10:00,
2013-03-30 04:15:00,26.8,23.2,30.21,West,262,0.0,0.0,86,0.00,CLR,,0.00,0.0,WeatherDisplay:10.37,2013-03-30 08:15:00,
2013-03-30 04:20:00,26.6,23.0,30.21,West,262,0.0,0.0,86,0.00,CLR,,0.00,0.0,WeatherDisplay:10.37,2013-03-30 08:20:00,
2013-03-30 04:25:00,26.3,22.7,30.21,West,262,0.0,0.0,86,0.00,CLR,,0.00,0.0,WeatherDisplay:10.37,2013-03-30 08:25:00,
2013-03-30 04:30:00,26.2,22.9,30.21,West,262,0.0,0.0,87,0.00,CLR,,0.00,0.0,WeatherDisplay:10.37,2013-03-30 08:30:00,
2013-03-30 04:35:00,26.2,22.9,30.20,West,262,0.0,0.0,87,0.00,CLR,,0.00,0.0,WeatherDisplay:10.37,2013-03-30 08:35:00,
2013-03-30 04:40:00,26.2,23.1,30.21,West,262,0.0,0.0,88,0.00,CLR,,0.00,0.0,WeatherDisplay:10.37,2013-03-30 08:40:00,
2013-03-30 04:45:00,26.5,23.4,30.20,West,262,0.0,0.0,88,0.00,CLR,,0.00,0.0,WeatherDisplay:10.37,2013-03-30 08:45:00,
2013-03-30 04:50:00,26.8,23.7,30.20,West,262,2.0,2.0,88,0.00,CLR,,0.00,0.0,WeatherDisplay:10.37,2013-03-30 08:50:00,
2013-03-30 04:55:00,26.9,23.5,30.20,West,262,0.0,0.0,87,0.00,CLR,,0.00,0.0,WeatherDisplay:10.37,2013-03-30 08:55:00,
2013-03-30 05:00:00,26.7,23.4,30.20,West,262,0.0,0.0,87,0.00,CLR,,0.00,0.0,WeatherDisplay:10.37,2013-03-30 09:00:00,
2013-03-30 05:05:00,26.6,23.3,30.20,West,262,0.0,0.0,87,0.00,CLR,,0.00,0.0,WeatherDisplay:10.37,2013-03-30 09:05:00,
2013-03-30 05:10:00,26.5,23.2,30.21,West,262,0.0,0.0,87,0.00,CLR,,0.00,0.0,WeatherDisplay:10.37,2013-03-30 09:10:00,
2013-03-30 05:15:00,26.3,23.0,30.21,West,262,0.0,0.0,87,0.00,CLR,,0.00,0.0,WeatherDisplay:10.37,2013-03-30 09:15:00,
2013-03-30 05:20:00,26.2,23.1,30.21,West,262,1.1,1.1,88,0.00,CLR,,0.00,0.0,WeatherDisplay:10.37,2013-03-30 09:20:00,
2013-03-30 05:25:00,26.3,23.2,30.21,West,262,2.3,2.3,88,0.00,CLR,,0.00,0.0,WeatherDisplay:10.37,2013-03-30 09:25:00,
2013-03-30 05:30:00,26.3,23.2,30.21,West,262,1.1,1.1,88,0.00,CLR,,0.00,0.0,WeatherDisplay:10.37,2013-03-30 09:30:00,
2013-03-30 05:34:00,26.2,23.1,30.20,West,262,0.0,0.0,88,0.00,CLR,,0.00,0.0,WeatherDisplay:10.37,2013-03-30 09:34:00,
2013-03-30 05:39:00,26.1,23.0,30.20,West,262,0.0,0.0,88,0.00,CLR,,0.00,0.0,WeatherDisplay:10.37,2013-03-30 09:39:00,
2013-03-30 05:44:00,26.0,22.7,30.20,West,262,0.0,0.0,87,0.00,CLR,,0.00,0.0,WeatherDisplay:10.37,2013-03-30 09:44:00,
2013-03-30 05:49:00,25.8,22.7,30.20,West,262,0.0,0.0,88,0.00,CLR,,0.00,0.0,WeatherDisplay:10.37,2013-03-30 09:49:00,
2013-03-30 05:54:00,25.8,23.0,30.20,West,262,1.1,1.1,89,0.00,CLR,,0.00,0.0,WeatherDisplay:10.37,2013-03-30 09:54:00,
2013-03-30 05:59:00,25.8,23.0,30.20,West,262,1.1,1.1,89,0.00,CLR,,0.00,0.0,WeatherDisplay:10.37,2013-03-30 09:59:00,
2013-03-30 06:04:00,25.7,22.9,30.20,West,262,1.1,1.1,89,0.00,CLR,,0.00,0.0,WeatherDisplay:10.37,2013-03-30 10:04:00,
2013-03-30 06:09:00,25.6,22.8,30.20,West,262,1.1,1.1,89,0.00,CLR,,0.00,0.0,WeatherDisplay:10.37,2013-03-30 10:09:00,
2013-03-30 06:14:00,25.6,22.8,30.21,West,262,2.3,2.3,89,0.00,CLR,,0.00,0.0,WeatherDisplay:10.37,2013-03-30 10:14:00,
2013-03-30 06:19:00,25.5,22.7,30.21,West,262,3.0,3.0,89,0.00,CLR,,0.00,0.0,WeatherDisplay:10.37,2013-03-30 10:19:00,
2013-03-30 06:24:00,25.4,22.6,30.21,WSW,249,2.3,2.3,89,0.00,CLR,,0.00,0.0,WeatherDisplay:10.37,2013-03-30 10:24:00,
2013-03-30 06:29:00,25.4,22.6,30.21,WSW,249,3.5,3.5,89,0.00,CLR,,0.00,0.0,WeatherDisplay:10.37,2013-03-30 10:29:00,
2013-03-30 06:34:00,25.4,22.9,30.21,WSW,249,2.3,2.3,90,0.00,CLR,,0.00,0.0,WeatherDisplay:10.37,2013-03-30 10:34:00,
2013-03-30 06:39:00,25.2,22.4,30.21,WSW,249,0.0,0.0,89,0.00,CLR,,0.00,0.0,WeatherDisplay:10.37,2013-03-30 10:39:00,
2013-03-30 06:44:00,25.1,22.3,30.21,WSW,249,1.0,1.0,89,0.00,CLR,,0.00,0.0,WeatherDisplay:10.37,2013-03-30 10:44:00,
2013-03-30 06:49:00,25.1,22.6,30.21,WSW,249,1.1,1.1,90,0.00,CLR,,0.00,0.0,WeatherDisplay:10.37,2013-03-30 10:49:00,
2013-03-30 06:54:00,25.0,22.5,30.21,WSW,249,3.5,3.5,90,0.00,CLR,,0.00,0.0,WeatherDisplay:10.37,2013-03-30 10:54:00,
2013-03-30 06:59:00,25.1,22.6,30.21,WSW,249,3.5,3.5,90,0.00,CLR,,0.00,0.0,WeatherDisplay:10.37,2013-03-30 10:59:00,
2013-03-30 07:04:00,25.1,22.8,30.21,WSW,249,2.3,2.3,91,0.00,CLR,,0.00,0.0,WeatherDisplay:10.37,2013-03-30 11:04:00,
2013-03-30 07:09:00,25.0,22.5,30.21,WSW,249,3.5,3.5,90,0.00,CLR,,0.00,0.0,WeatherDisplay:10.37,2013-03-30 11:09:00,
2013-03-30 07:14:00,24.9,22.4,30.21,WSW,249,3.5,3.5,90,0.00,CLR,,0.00,0.0,WeatherDisplay:10.37,2013-03-30 11:14:00,
2013-03-30 07:19:00,24.7,22.2,30.21,WSW,242,3.5,3.5,90,0.00,CLR,,0.00,0.0,WeatherDisplay:10.37,2013-03-30 11:19:00,
2013-03-30 07:24:00,24.6,22.1,30.21,SW,219,4.0,4.0,90,0.00,CLR,,0.00,5.0,WeatherDisplay:10.37,2013-03-30 11:24:00,
2013-03-30 07:29:00,24.8,22.5,30.21,SW,218,3.5,3.5,91,0.00,CLR,,0.00,7.0,WeatherDisplay:10.37,2013-03-30 11:29:00,
2013-03-30 07:34:00,24.8,22.5,30.21,SW,217,3.5,3.5,91,0.00,CLR,,0.00,11.0,WeatherDisplay:10.37,2013-03-30 11:34:00,
2013-03-30 07:39:00,25.0,22.7,30.21,SW,217,2.3,2.3,91,0.00,CLR,,0.00,14.0,WeatherDisplay:10.37,2013-03-30 11:39:00,
2013-03-30 07:44:00,25.0,22.7,30.21,SW,216,3.5,3.5,91,0.00,CLR,,0.00,18.0,WeatherDisplay:10.37,2013-03-30 11:44:00,
2013-03-30 07:49:00,25.1,22.8,30.21,SW,216,3.5,3.5,91,0.00,CLR,,0.00,21.0,WeatherDisplay:10.37,2013-03-30 11:49:00,
2013-03-30 07:54:00,25.2,22.9,30.21,SW,216,2.3,2.3,91,0.00,CLR,,0.00,25.0,WeatherDisplay:10.37,2013-03-30 11:54:00,
2013-03-30 07:59:00,25.4,23.1,30.22,SW,216,2.3,2.3,91,0.00,CLR,,0.00,26.0,WeatherDisplay:10.37,2013-03-30 11:59:00,
2013-03-30 08:04:00,25.8,23.5,30.22,SW,216,2.3,2.3,91,0.00,CLR,,0.00,35.0,WeatherDisplay:10.37,2013-03-30 12:04:00,
2013-03-30 08:09:00,26.3,24.0,30.22,SW,216,3.5,3.5,91,0.00,CLR,,0.00,42.0,WeatherDisplay:10.37,2013-03-30 12:09:00,
2013-03-30 08:14:00,26.8,24.5,30.22,SW,216,2.3,2.3,91,0.00,CLR,,0.00,65.0,WeatherDisplay:10.37,2013-03-30 12:14:00,
2013-03-30 08:19:00,27.4,25.1,30.22,SW,216,1.1,1.3,91,0.00,CLR,,0.00,77.0,WeatherDisplay:10.37,2013-03-30 12:19:00,
2013-03-30 08:24:00,28.0,25.4,30.22,SW,215,2.3,2.3,90,0.00,CLR,,0.00,70.0,WeatherDisplay:10.37,2013-03-30 12:24:00,
2013-03-30 08:29:00,28.8,26.0,30.22,SW,215,3.5,3.5,89,0.00,CLR,,0.00,100.0,WeatherDisplay:10.37,2013-03-30 12:29:00,
2013-03-30 08:34:00,29.8,26.4,30.22,SW,215,2.3,2.3,87,0.00,CLR,,0.00,97.0,WeatherDisplay:10.37,2013-03-30 12:34:00,
2013-03-30 08:39:00,30.6,26.6,30.22,SW,215,3.0,3.0,85,0.00,CLR,,0.00,95.0,WeatherDisplay:10.37,2013-03-30 12:39:00,
2013-03-30 08:44:00,31.3,26.7,30.22,SSW,210,3.5,3.5,83,0.00,CLR,,0.00,76.0,WeatherDisplay:10.37,2013-03-30 12:44:00,
2013-03-30 08:49:00,31.9,26.7,30.22,SSW,209,3.5,3.5,81,0.00,CLR,,0.00,72.0,WeatherDisplay:10.37,2013-03-30 12:49:00,
2013-03-30 08:54:00,32.6,27.1,30.21,SSW,209,3.5,3.5,80,0.00,CLR,,0.00,53.0,WeatherDisplay:10.37,2013-03-30 12:54:00,
2013-03-30 08:59:00,33.1,27.0,30.21,SSW,205,3.5,3.5,78,0.00,CLR,,0.00,90.0,WeatherDisplay:10.37,2013-03-30 12:59:00,
2013-03-30 09:04:00,33.8,27.7,30.21,SSW,205,3.5,3.5,78,0.00,OVC,,0.00,84.0,WeatherDisplay:10.37,2013-03-30 13:04:00,
2013-03-30 09:09:00,34.4,27.9,30.21,SSW,212,2.3,2.3,77,0.00,OVC,,0.00,130.0,WeatherDisplay:10.37,2013-03-30 13:09:00,
2013-03-30 09:14:00,34.9,28.1,30.21,SSW,206,3.0,3.0,76,0.00,OVC,,0.00,178.0,WeatherDisplay:10.37,2013-03-30 13:14:00,
2013-03-30 09:19:00,35.4,27.9,30.20,SSW,207,3.5,3.5,74,0.00,OVC,,0.00,190.0,WeatherDisplay:10.37,2013-03-30 13:19:00,
2013-03-30 09:24:00,36.0,28.2,30.20,SSW,207,3.5,3.5,73,0.00,OVC,,0.00,151.0,WeatherDisplay:10.37,2013-03-30 13:24:00,
2013-03-30 09:29:00,36.6,28.4,30.20,SSW,207,3.5,3.5,72,0.00,OVC,,0.00,151.0,WeatherDisplay:10.37,2013-03-30 13:29:00,
2013-03-30 09:34:00,37.0,28.5,30.20,SSW,207,2.3,2.3,71,0.00,OVC,,0.00,174.0,WeatherDisplay:10.37,2013-03-30 13:34:00,
2013-03-30 09:39:00,37.6,28.7,30.20,SW,233,3.5,3.5,70,0.00,OVC,,0.00,264.0,WeatherDisplay:10.37,2013-03-30 13:39:00,
2013-03-30 09:44:00,38.1,29.2,30.20,SW,221,3.5,3.5,70,0.00,OVC,,0.00,304.0,WeatherDisplay:10.37,2013-03-30 13:44:00,
2013-03-30 09:49:00,38.7,28.7,30.19,SW,229,3.5,3.5,67,0.00,OVC,,0.00,376.0,WeatherDisplay:10.37,2013-03-30 13:49:00,
2013-03-30 09:54:00,39.6,29.2,30.19,SW,223,2.0,2.0,66,0.00,OVC,,0.00,396.0,WeatherDisplay:10.37,2013-03-30 13:54:00,
2013-03-30 09:59:00,40.5,29.7,30.19,SSW,211,3.5,3.5,65,0.00,OVC,,0.00,413.0,WeatherDisplay:10.37,2013-03-30 13:59:00,
2013-03-30 10:04:00,41.0,29.0,30.19,WSW,248,6.0,6.0,62,0.00,OVC,,0.00,429.0,WeatherDisplay:10.37,2013-03-30 14:04:00,
2013-03-30 10:09:00,41.4,28.9,30.19,WSW,244,4.0,4.0,61,0.00,OVC,,0.00,445.0,WeatherDisplay:10.37,2013-03-30 14:09:00,
2013-03-30 10:14:00,41.8,28.5,30.19,WSW,242,3.5,3.5,59,0.00,OVC,,0.00,459.0,WeatherDisplay:10.37,2013-03-30 14:14:00,
2013-03-30 10:19:00,42.4,29.1,30.18,SW,229,5.0,5.0,59,0.00,OVC,,0.00,476.0,WeatherDisplay:10.37,2013-03-30 14:19:00,
2013-03-30 10:24:00,42.8,27.7,30.18,West,267,4.0,4.0,55,0.00,OVC,,0.00,490.0,WeatherDisplay:10.37,2013-03-30 14:24:00,
2013-03-30 10:30:00,43.2,29.4,30.18,WSW,238,3.5,3.5,58,0.00,OVC,,0.00,504.0,WeatherDisplay:10.37,2013-03-30 14:30:00,
2013-03-30 10:35:00,43.6,28.5,30.18,SSW,212,3.5,3.5,55,0.00,OVC,,0.00,524.0,WeatherDisplay:10.37,2013-03-30 14:35:00,
2013-03-30 10:40:00,44.0,28.4,30.18,SW,225,5.8,5.8,54,0.00,OVC,,0.00,536.0,WeatherDisplay:10.37,2013-03-30 14:40:00,
2013-03-30 10:45:00,44.2,28.1,30.18,West,261,5.8,5.8,53,0.00,OVC,,0.00,554.0,WeatherDisplay:10.37,2013-03-30 14:45:00,
2013-03-30 10:50:00,44.6,27.6,30.18,SW,225,7.0,7.0,51,0.00,OVC,,0.00,570.0,WeatherDisplay:10.37,2013-03-30 14:50:00,
2013-03-30 10:55:00,44.9,27.4,30.17,WNW,288,4.0,4.0,50,0.00,OVC,,0.00,582.0,WeatherDisplay:10.37,2013-03-30 14:55:00,
2013-03-30 11:00:00,45.4,27.8,30.18,WSW,242,6.9,6.9,50,0.00,OVC,,0.00,596.0,WeatherDisplay:10.37,2013-03-30 15:00:00,
2013-03-30 11:05:00,45.6,27.5,30.17,West,263,5.8,5.8,49,0.00,OVC,,0.00,606.0,WeatherDisplay:10.37,2013-03-30 15:05:00,
2013-03-30 11:10:00,46.0,27.9,30.17,West,263,5.8,5.8,49,0.00,OVC,,0.00,619.0,WeatherDisplay:10.37,2013-03-30 15:10:00,
2013-03-30 11:15:00,46.2,27.6,30.18,West,268,1.0,3.0,48,0.00,OVC,,0.00,631.0,WeatherDisplay:10.37,2013-03-30 15:15:00,
2013-03-30 11:20:00,46.7,26.5,30.17,WSW,239,7.0,9.0,45,0.00,OVC,,0.00,650.0,WeatherDisplay:10.37,2013-03-30 15:20:00,
2013-03-30 11:25:00,47.2,26.4,30.17,SW,223,6.0,9.0,44,0.00,OVC,,0.00,663.0,WeatherDisplay:10.37,2013-03-30 15:25:00,
2013-03-30 11:30:00,47.3,26.5,30.16,SW,232,6.0,8.0,44,0.00,OVC,,0.00,671.0,WeatherDisplay:10.37,2013-03-30 15:30:00,
2013-03-30 11:35:00,47.7,25.1,30.16,SW,220,11.5,11.5,41,0.00,OVC,,0.00,680.0,WeatherDisplay:10.37,2013-03-30 15:35:00,
2013-03-30 11:40:00,47.9,25.8,30.16,SW,226,6.0,10.0,42,0.00,OVC,,0.00,691.0,WeatherDisplay:10.37,2013-03-30 15:40:00,
2013-03-30 11:45:00,48.2,25.6,30.16,SW,214,3.0,12.0,41,0.00,OVC,,0.00,703.0,WeatherDisplay:10.37,2013-03-30 15:45:00,
2013-03-30 11:50:00,48.7,25.4,30.15,West,268,11.5,11.5,40,0.00,OVC,,0.00,717.0,WeatherDisplay:10.37,2013-03-30 15:50:00,
2013-03-30 11:55:00,49.2,27.6,30.15,SW,218,2.0,12.0,43,0.00,OVC,,0.00,728.0,WeatherDisplay:10.37,2013-03-30 15:55:00,
2013-03-30 12:00:00,49.9,27.1,30.15,WSW,239,5.8,5.8,41,0.00,OVC,,0.00,737.0,WeatherDisplay:10.37,2013-03-30 16:00:00,
2013-03-30 12:05:00,50.1,26.1,30.14,SW,229,8.1,8.1,39,0.00,OVC,,0.00,745.0,WeatherDisplay:10.37,2013-03-30 16:05:00,
2013-03-30 12:10:00,49.7,26.9,30.14,SSW,195,3.0,3.0,41,0.00,OVC,,0.00,754.0,WeatherDisplay:10.37,2013-03-30 16:10:00,
2013-03-30 12:15:00,50.2,26.8,30.14,SW,219,5.0,12.0,40,0.00,OVC,,0.00,763.0,WeatherDisplay:10.37,2013-03-30 16:15:00,
2013-03-30 12:20:00,50.6,26.5,30.13,SSW,197,7.0,10.0,39,0.00,OVC,,0.00,775.0,WeatherDisplay:10.37,2013-03-30 16:20:00,
2013-03-30 12:25:00,51.2,24.4,30.13,South,183,7.0,16.0,35,0.00,CLR,,0.00,784.0,WeatherDisplay:10.37,2013-03-30 16:25:00,
2013-03-30 12:30:00,51.7,24.9,30.13,South,181,8.0,12.0,35,0.00,CLR,,0.00,788.0,WeatherDisplay:10.37,2013-03-30 16:30:00,
2013-03-30 12:35:00,51.7,24.2,30.13,South,174,9.0,13.0,34,0.00,CLR,,0.00,798.0,WeatherDisplay:10.37,2013-03-30 16:35:00,
2013-03-30 12:40:00,51.9,25.1,30.13,South,176,7.0,12.0,35,0.00,CLR,,0.00,789.0,WeatherDisplay:10.37,2013-03-30 16:40:00,
2013-03-30 12:45:00,51.8,25.0,30.12,SSW,193,10.0,15.0,35,0.00,CLR,,0.00,800.0,WeatherDisplay:10.37,2013-03-30 16:45:00,
2013-03-30 12:50:00,51.3,24.5,30.12,SSW,207,7.0,16.0,35,0.00,CLR,,0.00,791.0,WeatherDisplay:10.37,2013-03-30 16:50:00,
2013-03-30 12:55:00,51.7,24.2,30.12,South,185,11.5,11.5,34,0.00,CLR,,0.00,805.0,WeatherDisplay:10.37,2013-03-30 16:55:00,
2013-03-30 13:00:00,51.9,25.1,30.12,WSW,252,11.5,11.5,35,0.00,CLR,,0.00,810.0,WeatherDisplay:10.37,2013-03-30 17:00:00,
2013-03-30 13:05:00,51.5,25.4,30.12,West,261,11.5,11.5,36,0.00,CLR,,0.00,807.0,WeatherDisplay:10.37,2013-03-30 17:05:00,
2013-03-30 13:10:00,51.6,25.5,30.12,SW,227,7.0,14.0,36,0.00,CLR,,0.00,821.0,WeatherDisplay:10.37,2013-03-30 17:10:00,
2013-03-30 13:15:00,51.7,24.9,30.12,SW,224,8.0,17.0,35,0.00,CLR,,0.00,803.0,WeatherDisplay:10.37,2013-03-30 17:15:00,
2013-03-30 13:20:00,51.7,23.5,30.11,SW,234,10.0,18.0,33,0.00,CLR,,0.00,838.0,WeatherDisplay:10.37,2013-03-30 17:20:00,
2013-03-30 13:25:00,51.7,24.9,30.11,SW,231,10.0,15.0,35,0.00,CLR,,0.00,838.0,WeatherDisplay:10.37,2013-03-30 17:25:00,
2013-03-30 13:30:00,52.0,23.0,30.11,SW,224,10.0,17.0,32,0.00,CLR,,0.00,824.0,WeatherDisplay:10.37,2013-03-30 17:30:00,
2013-03-30 13:35:00,51.9,23.7,30.11,SW,214,12.0,18.0,33,0.00,CLR,,0.00,837.0,WeatherDisplay:10.37,2013-03-30 17:35:00,
2013-03-30 13:40:00,52.0,23.8,30.11,SW,233,15.0,15.0,33,0.00,CLR,,0.00,853.0,WeatherDisplay:10.37,2013-03-30 17:40:00,
2013-03-30 13:45:00,51.6,21.9,30.11,SW,234,13.8,13.8,31,0.00,CLR,,0.00,851.0,WeatherDisplay:10.37,2013-03-30 17:45:00,
2013-03-30 13:50:00,51.8,23.6,30.10,WSW,237,10.4,10.4,33,0.00,CLR,,0.00,803.0,WeatherDisplay:10.37,2013-03-30 17:50:00,
2013-03-30 13:55:00,52.1,22.3,30.11,WSW,239,16.1,16.1,31,0.00,CLR,,0.00,763.0,WeatherDisplay:10.37,2013-03-30 17:55:00,
2013-03-30 14:00:00,52.2,22.4,30.11,WSW,244,18.4,18.4,31,0.00,CLR,,0.00,868.0,WeatherDisplay:10.37,2013-03-30 18:00:00,
2013-03-30 14:05:00,52.4,23.4,30.11,SW,216,12.0,18.0,32,0.00,CLR,,0.00,824.0,WeatherDisplay:10.37,2013-03-30 18:05:00,
2013-03-30 14:10:00,52.5,24.9,30.10,SSW,213,9.0,17.0,34,0.00,CLR,,0.00,856.0,WeatherDisplay:10.37,2013-03-30 18:10:00,
2013-03-30 14:15:00,53.1,22.5,30.10,SW,215,8.0,14.0,30,0.00,CLR,,0.00,853.0,WeatherDisplay:10.37,2013-03-30 18:15:00,
2013-03-30 14:20:00,53.0,22.3,30.10,SW,222,9.0,18.0,30,0.00,CLR,,0.00,838.0,WeatherDisplay:10.37,2013-03-30 18:20:00,
2013-03-30 14:25:00,53.2,21.7,30.09,SW,217,10.0,14.0,29,0.00,CLR,,0.00,846.0,WeatherDisplay:10.37,2013-03-30 18:25:00,
2013-03-30 14:30:00,53.4,20.2,30.09,SSW,212,10.0,20.0,27,0.00,CLR,,0.00,768.0,WeatherDisplay:10.37,2013-03-30 18:30:00,
2013-03-30 14:35:00,53.1,20.8,30.09,SW,218,9.0,17.0,28,0.00,CLR,,0.00,838.0,WeatherDisplay:10.37,2013-03-30 18:35:00,
2013-03-30 14:40:00,53.2,21.7,30.09,SW,215,7.0,17.0,29,0.00,CLR,,0.00,831.0,WeatherDisplay:10.37,2013-03-30 18:40:00,
2013-03-30 14:45:00,53.6,22.9,30.08,South,182,7.0,7.0,30,0.00,CLR,,0.00,837.0,WeatherDisplay:10.37,2013-03-30 18:45:00,
2013-03-30 14:50:00,54.2,22.6,30.08,SSW,213,20.7,20.7,29,0.00,CLR,,0.00,831.0,WeatherDisplay:10.37,2013-03-30 18:50:00,
2013-03-30 14:55:00,53.9,22.3,30.08,SSW,199,8.1,8.1,29,0.00,CLR,,0.00,826.0,WeatherDisplay:10.37,2013-03-30 18:55:00,
2013-03-30 15:00:00,54.1,21.7,30.07,SSW,211,10.0,17.0,28,0.00,CLR,,0.00,824.0,WeatherDisplay:10.37,2013-03-30 19:00:00,
2013-03-30 15:05:00,54.4,21.9,30.07,SSW,206,10.0,13.0,28,0.00,CLR,,0.00,819.0,WeatherDisplay:10.37,2013-03-30 19:05:00,
2013-03-30 15:10:00,54.1,20.8,30.07,SSW,213,9.0,16.0,27,0.00,CLR,,0.00,798.0,WeatherDisplay:10.37,2013-03-30 19:10:00,
2013-03-30 15:15:00,54.2,20.9,30.07,SSW,213,8.0,18.0,27,0.00,CLR,,0.00,793.0,WeatherDisplay:10.37,2013-03-30 19:15:00,
2013-03-30 15:20:00,54.4,20.2,30.07,SW,230,8.0,20.0,26,0.00,CLR,,0.00,766.0,WeatherDisplay:10.37,2013-03-30 19:20:00,
2013-03-30 15:25:00,54.4,19.3,30.06,SW,224,9.0,17.0,25,0.00,CLR,,0.00,744.0,WeatherDisplay:10.37,2013-03-30 19:25:00,
2013-03-30 15:30:00,54.4,18.3,30.06,SSW,196,11.0,11.0,24,0.00,CLR,,0.00,673.0,WeatherDisplay:10.37,2013-03-30 19:30:00,
2013-03-30 15:35:00,54.2,19.1,30.06,South,182,15.0,15.0,25,0.00,CLR,,0.00,737.0,WeatherDisplay:10.37,2013-03-30 19:35:00,
2013-03-30 15:40:00,54.5,19.3,30.05,SSW,199,11.5,11.5,25,0.00,CLR,,0.00,775.0,WeatherDisplay:10.37,2013-03-30 19:40:00,
2013-03-30 15:45:00,54.8,20.5,30.05,SSW,200,14.0,14.0,26,0.00,CLR,,0.00,705.0,WeatherDisplay:10.37,2013-03-30 19:45:00,
2013-03-30 15:50:00,54.9,19.7,30.05,SW,215,15.0,15.0,25,0.00,CLR,,0.00,705.0,WeatherDisplay:10.37,2013-03-30 19:50:00,
2013-03-30 15:55:00,55.0,20.7,30.04,SSW,208,6.0,13.0,26,0.00,CLR,,0.00,629.0,WeatherDisplay:10.37,2013-03-30 19:55:00,
2013-03-30 16:00:00,55.0,19.7,30.04,SW,226,9.0,16.0,25,0.00,CLR,,0.00,582.0,WeatherDisplay:10.37,2013-03-30 20:00:00,
2013-03-30 16:05:00,54.5,20.3,30.04,SW,223,6.0,14.0,26,0.00,CLR,,0.00,520.0,WeatherDisplay:10.37,2013-03-30 20:05:00,
2013-03-30 16:10:00,54.8,19.6,30.04,SW,216,8.0,17.0,25,0.00,CLR,,0.00,550.0,WeatherDisplay:10.37,2013-03-30 20:10:00,
2013-03-30 16:15:00,55.1,19.8,30.04,SW,219,6.0,14.0,25,0.00,CLR,,0.00,570.0,WeatherDisplay:10.37,2013-03-30 20:15:00,
2013-03-30 16:20:00,55.1,19.9,30.03,SW,228,6.0,14.0,25,0.00,CLR,,0.00,591.0,WeatherDisplay:10.37,2013-03-30 20:20:00,
2013-03-30 16:25:00,55.2,19.0,30.03,WSW,252,18.4,18.4,24,0.00,FEW,,0.00,531.0,WeatherDisplay:10.37,2013-03-30 20:25:00,
2013-03-30 16:30:00,55.2,18.0,30.03,WSW,245,11.5,11.5,23,0.00,FEW,,0.00,508.0,WeatherDisplay:10.37,2013-03-30 20:30:00,
2013-03-30 16:35:00,55.0,17.8,30.03,WSW,251,15.0,15.0,23,0.00,FEW,,0.00,541.0,WeatherDisplay:10.37,2013-03-30 20:35:00,
2013-03-30 16:40:00,55.1,19.9,30.03,SW,226,12.7,12.7,25,0.00,FEW,,0.00,538.0,WeatherDisplay:10.37,2013-03-30 20:40:00,
2013-03-30 16:45:00,55.1,17.9,30.03,WSW,242,11.5,11.5,23,0.00,SCT,,0.00,490.0,WeatherDisplay:10.37,2013-03-30 20:45:00,
2013-03-30 16:50:00,55.3,19.1,30.02,SW,229,9.0,14.0,24,0.00,SCT,,0.00,452.0,WeatherDisplay:10.37,2013-03-30 20:50:00,
2013-03-30 16:55:00,55.2,18.0,30.02,SW,233,8.0,12.0,23,0.00,SCT,,0.00,468.0,WeatherDisplay:10.37,2013-03-30 20:55:00,
2013-03-30 17:00:00,55.0,17.8,30.02,WSW,238,10.0,18.0,23,0.00,SCT,,0.00,455.0,WeatherDisplay:10.37,2013-03-30 21:00:00,
2013-03-30 17:05:00,54.9,18.7,30.02,SW,223,8.0,12.0,24,0.00,SCT,,0.00,439.0,WeatherDisplay:10.37,2013-03-30 21:05:00,
2013-03-30 17:10:00,55.4,20.1,30.01,SSW,210,5.0,9.0,25,0.00,SCT,,0.00,396.0,WeatherDisplay:10.37,2013-03-30 21:10:00,
2013-03-30 17:15:00,55.3,19.0,30.01,SW,214,10.0,17.0,24,0.00,BKN,,0.00,329.0,WeatherDisplay:10.37,2013-03-30 21:15:00,
2013-03-30 17:20:00,54.8,18.6,30.01,SSW,211,9.0,13.0,24,0.00,BKN,,0.00,295.0,WeatherDisplay:10.37,2013-03-30 21:20:00,
2013-03-30 17:25:00,54.5,19.3,30.01,SSW,210,7.0,13.0,25,0.00,BKN,,0.00,336.0,WeatherDisplay:10.37,2013-03-30 21:25:00,
2013-03-30 17:30:00,54.6,18.5,30.00,SW,231,11.5,11.5,24,0.00,BKN,,0.00,330.0,WeatherDisplay:10.37,2013-03-30 21:30:00,
2013-03-30 17:35:00,54.7,19.5,30.00,SW,236,11.5,11.5,25,0.00,BKN,,0.00,322.0,WeatherDisplay:10.37,2013-03-30 21:35:00,
2013-03-30 17:40:00,54.6,20.4,30.00,WSW,238,11.5,11.5,26,0.00,BKN,,0.00,330.0,WeatherDisplay:10.37,2013-03-30 21:40:00,
2013-03-30 17:45:00,54.6,20.4,30.00,SW,220,5.0,10.0,26,0.00,BKN,,0.00,290.0,WeatherDisplay:10.37,2013-03-30 21:45:00,
2013-03-30 17:50:00,54.9,19.7,30.00,SSW,210,10.0,16.0,25,0.00,BKN,,0.00,304.0,WeatherDisplay:10.37,2013-03-30 21:50:00,
2013-03-30 17:55:00,55.0,20.7,29.99,SSW,213,10.0,14.0,26,0.00,BKN,,0.00,329.0,WeatherDisplay:10.37,2013-03-30 21:55:00,
2013-03-30 18:00:00,55.2,20.9,29.99,SSW,205,6.0,12.0,26,0.00,BKN,,0.00,390.0,WeatherDisplay:10.37,2013-03-30 22:00:00,
2013-03-30 18:05:00,55.5,20.2,29.99,SW,214,8.0,14.0,25,0.00,BKN,,0.00,392.0,WeatherDisplay:10.37,2013-03-30 22:05:00,
2013-03-30 18:10:00,55.5,21.1,29.99,SW,223,9.0,14.0,26,0.00,BKN,,0.00,295.0,WeatherDisplay:10.37,2013-03-30 22:10:00,
2013-03-30 18:15:00,55.2,19.9,29.99,SSW,200,9.2,9.2,25,0.00,BKN,,0.00,258.0,WeatherDisplay:10.37,2013-03-30 22:15:00,
2013-03-30 18:20:00,55.0,19.8,29.99,SW,225,15.0,15.0,25,0.00,BKN,,0.00,211.0,WeatherDisplay:10.37,2013-03-30 22:20:00,
2013-03-30 18:25:00,54.6,21.2,29.99,South,173,11.5,11.5,27,0.00,BKN,,0.00,199.0,WeatherDisplay:10.37,2013-03-30 22:25:00,
2013-03-30 18:30:00,54.6,21.2,29.99,SW,214,11.5,11.5,27,0.00,BKN,,0.00,227.0,WeatherDisplay:10.37,2013-03-30 22:30:00,
2013-03-30 18:35:00,54.6,21.2,29.98,SW,219,8.1,8.1,27,0.00,BKN,,0.00,248.0,WeatherDisplay:10.37,2013-03-30 22:35:00,
2013-03-30 18:40:00,54.8,21.4,29.98,SSW,206,6.0,12.0,27,0.00,BKN,,0.00,218.0,WeatherDisplay:10.37,2013-03-30 22:40:00,
2013-03-30 18:45:00,54.9,21.5,29.98,SSW,210,8.0,12.0,27,0.00,BKN,,0.00,195.0,WeatherDisplay:10.37,2013-03-30 22:45:00,
2013-03-30 18:50:00,54.9,21.5,29.98,SSW,209,9.0,13.0,27,0.00,BKN,,0.00,200.0,WeatherDisplay:10.37,2013-03-30 22:50:00,
2013-03-30 18:55:00,54.8,22.3,29.98,SSW,209,7.0,13.0,28,0.00,BKN,,0.00,181.0,WeatherDisplay:10.37,2013-03-30 22:55:00,
2013-03-30 19:00:00,54.7,22.2,29.98,SSW,213,6.0,8.0,28,0.00,BKN,,0.00,160.0,WeatherDisplay:10.37,2013-03-30 23:00:00,
2013-03-30 19:05:00,54.5,22.9,29.97,SSW,206,7.0,13.0,29,0.00,BKN,,0.00,125.0,WeatherDisplay:10.37,2013-03-30 23:05:00,
2013-03-30 19:10:00,54.2,22.6,29.97,SSW,211,11.5,11.5,29,0.00,BKN,,0.00,111.0,WeatherDisplay:10.37,2013-03-30 23:10:00,
2013-03-30 19:15:00,54.0,23.2,29.97,SSW,201,8.1,8.1,30,0.00,BKN,,0.00,83.0,WeatherDisplay:10.37,2013-03-30 23:15:00,
2013-03-30 19:20:00,53.6,22.9,29.97,SW,214,11.5,11.5,30,0.00,BKN,,0.00,51.0,WeatherDisplay:10.37,2013-03-30 23:20:00,
2013-03-30 19:25:00,53.3,23.4,29.97,SW,223,9.2,9.2,31,0.00,CLR,,0.00,42.0,WeatherDisplay:10.37,2013-03-30 23:25:00,
2013-03-30 19:30:00,53.1,23.2,29.97,SW,217,6.0,12.0,31,0.00,CLR,,0.00,33.0,WeatherDisplay:10.37,2013-03-30 23:30:00,
2013-03-30 19:35:00,52.7,23.6,29.97,SSW,202,8.1,8.1,32,0.00,CLR,,0.00,25.0,WeatherDisplay:10.37,2013-03-30 23:35:00,
2013-03-30 19:40:00,52.4,23.4,29.97,SW,216,3.0,10.0,32,0.00,CLR,,0.00,16.0,WeatherDisplay:10.37,2013-03-30 23:40:00,
2013-03-30 19:45:00,52.1,23.8,29.97,SW,219,3.0,8.0,33,0.00,CLR,,0.00,11.0,WeatherDisplay:10.37,2013-03-30 23:45:00,
2013-03-30 19:50:00,51.8,23.6,29.97,SW,214,5.0,12.0,33,0.00,CLR,,0.00,7.0,WeatherDisplay:10.37,2013-03-30 23:50:00,
2013-03-30 19:55:00,51.5,24.0,29.97,SW,217,3.0,6.0,34,0.00,CLR,,0.00,0.0,WeatherDisplay:10.37,2013-03-30 23:55:00,
2013-03-30 20:00:00,51.2,24.5,29.97,SW,217,2.0,6.0,35,0.00,CLR,,0.00,0.0,WeatherDisplay:10.37,2013-03-31 00:00:00,
2013-03-30 20:05:00,51.0,24.3,29.97,SW,215,5.0,7.0,35,0.00,CLR,,0.00,0.0,WeatherDisplay:10.37,2013-03-31 00:05:00,
2013-03-30 20:10:00,50.8,24.1,29.97,SW,221,4.6,4.6,35,0.00,CLR,,0.00,0.0,WeatherDisplay:10.37,2013-03-31 00:10:00,
2013-03-30 20:15:00,50.6,23.9,29.96,SSW,213,5.8,5.8,35,0.00,CLR,,0.00,0.0,WeatherDisplay:10.37,2013-03-31 00:15:00,
2013-03-30 20:20:00,50.5,24.5,29.96,SSW,200,3.5,3.5,36,0.00,CLR,,0.00,0.0,WeatherDisplay:10.37,2013-03-31 00:20:00,
2013-03-30 20:25:00,50.3,24.3,29.96,SSW,199,2.0,5.0,36,0.00,CLR,,0.00,0.0,WeatherDisplay:10.37,2013-03-31 00:25:00,
2013-03-30 20:30:00,50.1,24.1,29.96,SSW,195,3.0,7.0,36,0.00,CLR,,0.00,0.0,WeatherDisplay:10.37,2013-03-31 00:30:00,
2013-03-30 20:35:00,50.0,24.1,29.96,South,191,3.0,7.0,36,0.00,CLR,,0.00,0.0,WeatherDisplay:10.37,2013-03-31 00:35:00,
2013-03-30 20:40:00,50.0,24.7,29.96,South,187,5.0,8.0,37,0.00,CLR,,0.00,0.0,WeatherDisplay:10.37,2013-03-31 00:40:00,
2013-03-30 20:45:00,50.0,24.7,29.95,South,187,5.0,7.0,37,0.00,CLR,,0.00,0.0,WeatherDisplay:10.37,2013-03-31 00:45:00,
2013-03-30 20:50:00,50.0,24.7,29.96,South,190,3.0,8.0,37,0.00,CLR,,0.00,0.0,WeatherDisplay:10.37,2013-03-31 00:50:00,
2013-03-30 20:55:00,49.9,25.3,29.96,SSW,202,5.0,8.0,38,0.00,CLR,,0.00,0.0,WeatherDisplay:10.37,2013-03-31 00:55:00,
2013-03-30 21:00:00,49.9,25.2,29.96,SSW,198,5.0,7.0,38,0.00,CLR,,0.00,0.0,WeatherDisplay:10.37,2013-03-31 01:00:00,
2013-03-30 21:05:00,49.7,25.7,29.95,South,184,4.0,4.7,39,0.00,CLR,,0.00,0.0,WeatherDisplay:10.37,2013-03-31 01:05:00,
2013-03-30 21:10:00,49.5,25.5,29.95,South,183,6.0,8.0,39,0.00,CLR,,0.00,0.0,WeatherDisplay:10.37,2013-03-31 01:10:00,
2013-03-30 21:15:00,49.4,26.0,29.95,South,185,6.0,8.0,40,0.00,CLR,,0.00,0.0,WeatherDisplay:10.37,2013-03-31 01:15:00,
2013-03-30 21:20:00,49.2,25.9,29.95,South,182,5.0,9.0,40,0.00,CLR,,0.00,0.0,WeatherDisplay:10.37,2013-03-31 01:20:00,
2013-03-30 21:25:00,49.1,25.8,29.95,South,184,5.0,9.0,40,0.00,CLR,,0.00,0.0,WeatherDisplay:10.37,2013-03-31 01:25:00,
2013-03-30 21:30:00,49.0,26.3,29.95,South,189,6.0,10.0,41,0.00,CLR,,0.00,0.0,WeatherDisplay:10.37,2013-03-31 01:30:00,
2013-03-30 21:35:00,48.9,26.2,29.95,South,190,5.0,12.0,41,0.00,CLR,,0.00,0.0,WeatherDisplay:10.37,2013-03-31 01:35:00,
2013-03-30 21:40:00,48.8,26.7,29.95,South,190,5.0,10.0,42,0.00,CLR,,0.00,0.0,WeatherDisplay:10.37,2013-03-31 01:40:00,
2013-03-30 21:45:00,48.6,26.5,29.95,SSW,200,8.1,8.1,42,0.00,CLR,,0.00,0.0,WeatherDisplay:10.37,2013-03-31 01:45:00,
2013-03-30 21:50:00,48.6,27.1,29.95,SSW,194,9.2,9.2,43,0.00,CLR,,0.00,0.0,WeatherDisplay:10.37,2013-03-31 01:50:00,
2013-03-30 21:55:00,48.5,27.0,29.95,South,171,8.1,8.1,43,0.00,CLR,,0.00,0.0,WeatherDisplay:10.37,2013-03-31 01:55:00,
2013-03-30 22:00:00,48.4,27.5,29.95,SSW,213,7.0,7.0,44,0.00,CLR,,0.00,0.0,WeatherDisplay:10.37,2013-03-31 02:00:00,
2013-03-30 22:05:00,48.4,27.5,29.95,South,173,5.8,5.8,44,0.00,CLR,,0.00,0.0,WeatherDisplay:10.37,2013-03-31 02:05:00,
2013-03-30 22:10:00,48.4,27.5,29.94,SSW,205,8.1,8.1,44,0.00,CLR,,0.00,0.0,WeatherDisplay:10.37,2013-03-31 02:10:00,
2013-03-30 22:15:00,48.3,27.9,29.95,South,189,3.5,3.5,45,0.00,CLR,,0.00,0.0,WeatherDisplay:10.37,2013-03-31 02:15:00,
2013-03-30 22:20:00,48.3,27.9,29.95,SSW,207,4.6,4.6,45,0.00,CLR,,0.00,0.0,WeatherDisplay:10.37,2013-03-31 02:20:00,
2013-03-30 22:25:00,48.3,28.5,29.94,SSW,205,6.9,6.9,46,0.00,CLR,,0.00,0.0,WeatherDisplay:10.37,2013-03-31 02:25:00,
2013-03-30 22:30:00,48.3,29.0,29.94,SSW,212,6.0,6.0,47,0.00,CLR,,0.00,0.0,WeatherDisplay:10.37,2013-03-31 02:30:00,
2013-03-30 22:35:00,48.4,29.1,29.94,SSW,209,9.2,9.2,47,0.00,CLR,,0.00,0.0,WeatherDisplay:10.37,2013-03-31 02:35:00,
2013-03-30 22:40:00,48.5,29.7,29.94,South,171,6.9,6.9,48,0.00,CLR,,0.00,0.0,WeatherDisplay:10.37,2013-03-31 02:40:00,
2013-03-30 22:45:00,48.5,30.2,29.94,SSW,197,6.0,6.0,49,0.00,CLR,,0.00,0.0,WeatherDisplay:10.37,2013-03-31 02:45:00,
2013-03-30 22:50:00,48.5,30.7,29.94,SW,236,8.1,8.1,50,0.00,CLR,,0.00,0.0,WeatherDisplay:10.37,2013-03-31 02:50:00,
2013-03-30 22:55:00,48.5,30.7,29.94,SSW,202,9.2,9.2,50,0.00,CLR,,0.00,0.0,WeatherDisplay:10.37,2013-03-31 02:55:00,
2013-03-30 23:00:00,48.5,30.7,29.94,SW,216,6.0,6.0,50,0.00,CLR,,0.00,0.0,WeatherDisplay:10.37,2013-03-31 03:00:00,
2013-03-30 23:05:00,48.4,31.1,29.94,SW,223,10.4,10.4,51,0.00,CLR,,0.00,0.0,WeatherDisplay:10.37,2013-03-31 03:05:00,
2013-03-30 23:10:00,48.3,31.0,29.94,SSW,211,10.4,10.4,51,0.00,CLR,,0.00,0.0,WeatherDisplay:10.37,2013-03-31 03:10:00,
2013-03-30 23:15:00,48.2,30.9,29.93,SW,217,8.1,8.1,51,0.00,CLR,,0.00,0.0,WeatherDisplay:10.37,2013-03-31 03:15:00,
2013-03-30 23:20:00,48.1,31.3,29.93,South,184,7.0,7.0,52,0.00,CLR,,0.00,0.0,WeatherDisplay:10.37,2013-03-31 03:20:00,
2013-03-30 23:25:00,47.9,31.1,29.93,WSW,239,5.0,5.0,52,0.00,CLR,,0.00,0.0,WeatherDisplay:10.37,2013-03-31 03:25:00,
2013-03-30 23:30:00,47.8,31.0,29.93,SW,216,5.0,5.0,52,0.00,CLR,,0.00,0.0,WeatherDisplay:10.37,2013-03-31 03:30:00,
2013-03-30 23:35:00,47.6,30.8,29.92,SSW,206,6.9,6.9,52,0.00,CLR,,0.00,0.0,WeatherDisplay:10.37,2013-03-31 03:35:00,
2013-03-30 23:40:00,47.3,31.0,29.92,SSW,209,6.9,6.9,53,0.00,CLR,,0.00,0.0,WeatherDisplay:10.37,2013-03-31 03:40:00,
2013-03-30 23:45:00,47.1,31.3,29.92,SSW,206,3.5,3.5,54,0.00,CLR,,0.00,0.0,WeatherDisplay:10.37,2013-03-31 03:45:00,
2013-03-30 23:50:00,46.9,31.1,29.92,SSW,200,6.9,6.9,54,0.00,CLR,,0.00,0.0,WeatherDisplay:10.37,2013-03-31 03:50:00,
2013-03-30 23:55:00,46.8,31.0,29.92,SSW,193,8.1,8.1,54,0.00,CLR,,0.00,0.0,WeatherDisplay:10.37,2013-03-31 03:55:00,